DW9167 Weather Reports


time (UTC)temp
C
wind
direction
speed
KPH
gust
KPH
rain 1hr
cm
rain 24hr
cm
rain mn
cm
humidity
%
barometer
mb
20260506235242 16 339 0.0 6.4 0.00 0.08 0.08 89 1006.6
20260506234241 16 3 8.0 17.7 0.00 0.08 0.08 89 1006.2
20260506233243 16 38 6.4 17.7 0.00 0.08 0.08 88 1006.2
20260506232342 16 360 4.8 12.9 0.00 0.08 0.08 88 1006.2
20260506231440 16 18 6.4 19.3 0.00 0.08 0.08 87 1006.2
20260506230442 17 5 3.2 9.7 0.00 0.08 0.08 86 1006.2
20260506225442 17 42 4.8 9.7 0.00 0.08 0.08 86 1006.2
20260506224442 17 30 8.0 16.1 0.00 0.08 0.08 84 1006.2
20260506223442 17 20 9.7 20.9 0.00 0.08 0.08 83 1006.2
20260506222442 18 347 3.2 8.0 0.00 0.08 0.08 82 1005.9
20260506221541 18 26 3.2 8.0 0.00 0.08 0.08 81 1005.9
20260506220542 18 53 6.4 9.7 0.00 0.08 0.08 79 1006.2
20260506215640 19 358 9.7 17.7 0.00 0.08 0.08 77 1005.9
20260506214644 20 4 8.0 20.9 0.00 0.08 0.08 76 1005.6
20260506213640 20 61 6.4 12.9 0.00 0.08 0.08 76 1005.6
20260506213544 20 57 3.2 11.3 0.00 0.08 0.08 76 1005.6
20260506212542 20 37 4.8 9.7 0.00 0.08 0.08 75 1005.9
20260506211641 20 6 4.8 16.1 0.00 0.08 0.08 75 1004.9
20260506210641 20 52 8.0 12.9 0.00 0.08 0.08 75 1005.2
20260506205642 21 10 8.0 14.5 0.00 0.08 0.08 71 1004.9
20260506203642 21 351 6.4 12.9 0.00 0.08 0.08 75 1005.2
20260506202639 21 19 8.0 12.9 0.00 0.08 0.08 78 1005.2
20260506201739 20 40 6.4 11.3 0.00 0.08 0.08 81 1004.9
20260506200742 20 21 8.0 16.1 0.00 0.08 0.08 81 1004.9
20260506194841 22 60 8.0 12.9 0.00 0.08 0.08 79 1004.2
20260506193940 22 1 1.6 8.0 0.00 0.08 0.08 80 1004.2
20260506192941 23 356 4.8 11.3 0.00 0.08 0.08 78 1003.8
20260506191039 23 352 4.8 9.7 0.00 0.08 0.08 77 1004.2
20260506190042 24 22 4.8 9.7 0.00 0.08 0.08 75 1003.8
20260506185042 24 55 3.2 9.7 0.00 0.08 0.08 76 1003.5
20260506184140 24 328 1.6 9.7 0.00 0.08 0.08 77 1004.2
20260506183140 23 47 3.2 8.0 0.00 0.08 0.08 80 1004.2
20260506182239 23 67 0.0 4.8 0.00 0.08 0.08 83 1004.2
20260506181241 22 40 0.0 1.6 0.00 0.08 0.08 84 1004.2
20260506180241 22 22 0.0 0.0 0.00 0.08 0.08 84 1004.2
20260506175243 21 45 1.6 6.4 0.00 0.08 0.08 91 1004.5
20260506174341 21 322 0.0 3.2 0.00 0.08 0.08 93 1004.7
20260506173341 19 24 0.0 6.4 0.05 0.08 0.08 97 1005.5
20260506171342 18 22 4.8 9.7 0.08 0.08 0.08 95 1005.6
20260506165342 17 63 9.7 14.5 0.08 0.08 0.08 89 1006.1
20260506164341 16 51 4.8 8.0 0.08 0.08 0.08 90 1006.2
20260506163339 16 54 4.8 8.0 0.03 0.03 0.03 97 1006.6
20260506162342 17 36 8.0 22.5 0.00 0.00 0.00 99 1006.9
20260506161341 18 56 6.4 12.9 0.00 0.00 0.00 98 1006.8
20260506160341 18 23 4.8 12.9 0.00 0.00 0.00 98 1006.4
20260506155342 20 26 6.4 16.1 0.00 0.00 0.00 96 1005.8
20260506154341 22 27 4.8 8.0 0.00 0.00 0.00 91 1004.3
20260506153341 23 22 0.0 0.0 0.00 0.00 0.00 95 1003.5
20260506152340 23 180 0.0 0.0 0.00 0.00 0.00 96 1003.5
20260506145441 23 180 0.0 0.0 0.00 0.00 0.00 96 1003.2
20260506144441 23 180 0.0 0.0 0.00 0.00 0.00 96 1002.8
20260506143540 23 180 0.0 0.0 0.00 0.00 0.00 96 1002.8
20260506142541 23 180 0.0 0.0 0.00 0.00 0.00 96 1002.4
20260506141540 23 180 0.0 0.0 0.00 0.00 0.00 96 1002.4
20260506135542 23 180 0.0 0.0 0.00 0.00 0.00 92 1002.4
20260506134540 23 180 0.0 0.0 0.00 0.00 0.00 91 1002.1
20260506132539 22 180 0.0 0.0 0.00 0.00 0.00 91 1002.1
20260506131542 22 180 0.0 0.0 0.00 0.00 0.00 89 1002.1
20260506125642 22 180 0.0 0.0 0.00 0.00 0.00 87 1001.7
20260506124642 22 180 0.0 0.0 0.00 0.00 0.00 87 1001.7
20260506123639 22 180 0.0 0.0 0.00 0.00 0.00 87 1001.7
20260506122640 22 180 0.0 0.0 0.00 0.00 0.00 88 1002.1
20260506121644 22 180 0.0 0.0 0.00 0.00 0.00 88 1002.1
20260506120641 22 180 0.0 0.0 0.00 0.00 0.00 89 1001.7
20260506120539 22 180 0.0 0.0 0.00 0.00 0.00 89 1001.7
20260506115539 21 180 0.0 0.0 0.00 0.00 0.00 90 1001.7
20260506114541 22 180 0.0 0.0 0.00 0.00 0.00 92 1001.7
20260506113541 22 180 0.0 0.0 0.00 0.00 0.00 92 1001.7
20260506112542 22 180 0.0 0.0 0.00 0.00 0.00 91 1001.4
20260506111540 22 180 0.0 0.0 0.00 0.00 0.00 92 1001.7
20260506110541 22 180 0.0 0.0 0.00 0.00 0.00 91 1001.7
20260506105639 22 180 0.0 0.0 0.00 0.00 0.00 92 1001.4
20260506104640 22 180 0.0 0.0 0.00 0.00 0.00 92 1001.4
20260506102641 22 180 0.0 0.0 0.00 0.00 0.00 91 1001.4
20260506101740 22 157 0.0 0.0 0.00 0.00 0.00 91 1001.1
20260506095742 22 180 1.6 6.4 0.00 0.00 0.00 91 1001.1
20260506094742 22 177 3.2 6.4 0.00 0.00 0.00 90 1000.7
20260506093840 22 138 0.0 3.2 0.00 0.00 0.00 90 1000.7
20260506092841 22 180 1.6 4.8 0.00 0.00 0.00 90 1000.7
20260506091841 22 168 3.2 9.7 0.00 0.00 0.00 90 1000.7
20260506090842 22 180 0.0 0.0 0.00 0.00 0.00 90 1000.4
20260506085842 22 180 3.2 11.3 0.00 0.00 0.00 90 1000.4
20260506084939 22 180 1.6 8.0 0.00 0.00 0.00 90 1000.7
20260506083940 22 180 1.6 8.0 0.00 0.00 0.00 91 1000.7
20260506082941 22 172 1.6 6.4 0.00 0.00 0.00 91 1000.7
20260506081941 22 110 0.0 4.8 0.00 0.00 0.00 91 1000.7
20260506080940 22 167 1.6 4.8 0.00 0.00 0.00 92 1000.7
20260506072942 22 170 3.2 8.0 0.00 0.00 0.00 92 1001.1
20260506071941 22 158 0.0 4.8 0.00 0.00 0.00 92 1001.1
20260506070939 22 180 0.0 3.2 0.00 0.00 0.00 93 1001.1
20260506062039 22 179 1.6 8.0 0.00 0.00 0.00 94 1000.7
20260506061040 22 180 0.0 4.8 0.00 0.00 0.00 94 1000.7
20260506051139 22 180 4.8 8.0 0.00 0.00 0.00 94 1000.7
20260506050140 23 171 1.6 4.8 0.00 0.00 0.00 94 1001.1
20260506044337 22 157 0.0 0.0 0.00 0.00 0.00 94 1001.1
20260506043340 23 179 3.2 12.9 0.00 0.00 0.00 95 1000.9
20260506042438 23 177 3.2 8.0 0.00 0.00 0.00 96 1000.7
20260506041441 23 180 0.0 0.0 0.00 0.00 0.00 96 1000.7
20260506040439 23 135 3.2 8.0 0.00 0.00 0.00 96 1000.4
20260506034438 23 175 6.4 12.9 0.00 0.00 0.00 96 1000.4
20260506033537 23 157 0.0 1.6 0.00 0.00 0.00 96 1000.4
20260506032539 23 170 0.0 1.6 0.00 0.00 0.00 96 1000.0
20260506030638 23 180 0.0 0.0 0.00 0.00 0.00 96 1000.0
20260506025638 23 135 0.0 0.0 0.00 0.00 0.00 96 999.7
20260506024736 23 180 0.0 0.0 0.00 0.00 0.00 95 999.7
20260506023739 24 180 1.6 8.0 0.00 0.00 0.00 95 999.4
20260506022740 24 180 0.0 0.0 0.00 0.00 0.00 95 999.0
20260506021739 24 157 0.0 0.0 0.00 0.00 0.00 93 998.6
20260506020736 24 112 0.0 0.0 0.00 0.00 0.00 93 998.6
20260506015836 24 112 0.0 0.0 0.00 0.00 0.00 92 998.3
20260506013837 25 157 0.0 0.0 0.00 0.00 0.00 90 998.3
20260506012840 25 157 0.0 3.2 0.00 0.00 0.00 89 998.3
20260506011840 25 180 0.0 0.0 0.00 0.00 0.00 88 998.3
20260506010938 25 157 0.0 0.0 0.00 0.00 0.00 86 997.9
20260506005938 26 180 0.0 0.0 0.00 0.00 0.00 85 997.9
20260506004939 26 157 0.0 0.0 0.00 0.00 0.00 85 997.9
20260506003939 26 180 0.0 0.0 0.00 0.00 0.00 84 997.9
20260506002938 26 180 0.0 0.0 0.00 0.00 0.00 83 997.9
20260506001037 26 162 0.0 3.2 0.00 0.00 0.00 81 997.6
20260506000136 26 180 0.0 4.8 0.00 0.00 0.00 81 997.6